842  
ASUS43 KEAX 162210  
RWREAX  
 
WEATHER ROUNDUP FOR EASTERN KANSAS AND NORTHWEST MISSOURI  
NATIONAL WEATHER SERVICE KANSAS CITY/PLEASANT HILL MO  
500 PM CDT MON SEP 16 2019  
 
KSZ040-057-103>105-MOZ028-029-037-043-162300-   
..KANSAS CITY METROPOLITAN AREA
 
 
 
CITY SKY/WX TMP DP RH WIND PRES REMARKS
 
K.C. INTL PTSUNNY 87 74 64 S5 30.03F HX 95  
K.C. DOWNTOWN MOSUNNY 93 66 40 S9 30.00F HX 96  
LEES SUMMIT SUNNY 91 70 49 S6 30.04S HX 96  
OLATHE - IXD SUNNY 88 69 53 S7 30.04F HX 92  
OLATHE - OJC MOSUNNY 89 70 53 SW9 30.03F HX 94  
LAWRENCE SUNNY 91 69 48 SE8 30.01F HX 96  
 

 
 
MOZ001>008-011>017-020>025-030>033-038>040-044>046-053-054-162300-   
..NORTHERN AND CENTRAL MISSOURI
 
 
 
CITY SKY/WX TMP DP RH WIND PRES REMARKS
 
ST. JOSEPH SUNNY 88 71 57 S8 30.01S HX 94  
WARRENSBURG SUNNY 90 66 45 SE3 30.03F HX 92  
WHITEMAN AFB PTSUNNY 89 70 53 S5 30.00F HX 94  
CLINTON SUNNY 90 72 55 CALM 30.04S HX 96  
SEDALIA SUNNY 89 67 47 SE5 30.05F HX 92  
WARSAW NOT AVBL  
CHILLICOTHE N/A 90 73 57 S3 30.04S HX 98  
KIRKSVILLE SUNNY 91 68 46 S6 30.05F HX 95  
 

 
 
MOZ041-047>049-056>058-063>065-088>090-097-162300-   
..EASTERN AND SOUTHERN MISSOURI
 
 
 
CITY SKY/WX TMP DP RH WIND PRES REMARKS
 
ST. LOUIS INTL MOSUNNY 93 68 43 N7 30.03F HX 97  
SPIRIT OF STL MOSUNNY 93 72 50 SW6 30.02F HX 101  
COLUMBIA SUNNY 91 69 48 VRB3 30.05F HX 96  
JEFFERSON CITY SUNNY 92 66 42 S5 30.03F HX 94  
ROLLA SUNNY 90 67 46 SE6 30.07F HX 93  
OSAGE BEACH SUNNY 91 68 46 CALM 30.05F HX 95  
SPRINGFIELD CLOUDY 93 63 36 CALM 30.04F HX 94  
BRANSON PTSUNNY 91 61 35 E3 30.07F HX 91  
JOPLIN MOSUNNY 89 73 59 VRB3 30.04F HX 97  
WEST PLAINS SUNNY 92 59 33 E6 30.08F HX 91  
 

 
 
IAZ060-094-KSZ022-034>040-054-083-096-NEZ052-066-093-162300-    
..KANSAS...SOUTHEAST NEBRASKA AND IOWA
 
 
 
CITY SKY/WX TMP DP RH WIND PRES REMARKS
 
TOPEKA SUNNY 90 68 48 S13 30.00F HX 94  
MANHATTAN SUNNY 91 68 46 S13 29.97F HX 95  
CHANUTE MOSUNNY 93 70 46 S12 30.03F HX 99  
WICHITA MOSUNNY 91 65 41 S16G24 29.99F HX 93  
OMAHA CLOUDY 89 69 51 S18 29.96F HX 93  
LINCOLN SUNNY 91 66 43 S21 29.95F HX 93  
FALLS CITY SUNNY 89 70 53 S8 29.99F HX 94  
LAMONI SUNNY 87 71 58 S7 30.04S HX 93  
DES MOINES CLOUDY 86 71 60 SE8 30.01S HX 91  
 

 
 
 
 
CLICK HERE TO GO TO PREVIOUS BULLETINS.

The Nexlab MO Page
The Nexlab KS Page Main Text Page